Weather in Vizhas

Russia / Nenets Autonomous Okrug     66°38′22″N   45°53′10″E
temp.,
°C
wind,
m/s
gust,
m/s
humid.,
%
clouds,
%
prec.,
mm/h
press.,
hPa
HPBL,
m
12 august, fri
fri1200:00+13wsw8139330 0.8 1003304
03:00+12wsw6119735 0.8 1004231
06:00+12w711923 0.1 1004334
09:00+14w91175100 0.1 1005501
12:00+16wnw8106195 0.1 10061297
15:00+13wnw91076100 0.8 1008833
18:00+14wnw711648 0.1 10091367
21:00+10wsw59825 0.1 1010145
13 august, sat
sat1300:00+11wsw7127687 0.0 1010302
03:00+9wnw8148458 0.1 1010362
06:00+11w111472100 0.0 10111013
09:00+10w111478100 0.0 1012981
12:00+12wnw121472100 0.1 10141149
15:00+13nw11136475 0.3 10151492
18:00+11nw91163100 0.1 10171372
21:00+10nw81059100 0.1 1018930
14 august, sun
sun1400:00+7wnw59915 0.0 1019178
03:00+6wnw4793100 0.0 1020108
06:00+9w4788100 0.0 1020294
09:00+13w566783 0.4 1020773
12:00+16w6754100 0.3 10201565
15:00+16w664917 0.4 10201392
18:00+15wsw676275 0.0 1019593
21:00+10sw4683100 0.0 101980
15 august, mon
mon1500:00+10ssw478638 0.0 1018101
03:00+9wsw5994100 0.1 1017136
06:00+12nw598698 0.1 1018248
09:00+13nnw6763100 0.1 1020634
12:00+15nw78498 0.0 10211347
15:00+15nw79505 0.0 10231380
18:00+13nw68585 0.0 1023942
21:00+9wnw45796 0.0 102455
16 august, tue
tue1600:00+7wnw44865 0.0 102644
03:00+7w228211 0.0 102616
06:00+10sw45705 0.0 1026164
09:00+15ssw675423 0.0 1025486
12:00+20sw78465 0.0 1024945
15:00+22wsw78483 0.0 10231074
18:00+22sw69605 0.0 1021369
21:00+16sw597951 0.1 1021107